Find Starlink 30936

NORAD ID: 58534 Int'l Des: 2023-192 Owner: SPXS Country: US Constellation: starlink operational
LEOCIRCULAR

Live Position

Loading 3D Globe...

About Starlink 30936

Description loading...

Upcoming Passes

Passes for default location (London). Set your location on the main map for personalized predictions.

Altitude History

Loading altitude history...

Two-Line Element Set

1 58534U 23192D 26126.47695880 .00000499 00000-0 28988-4 0 9997
2 58534 53.1595 144.3540 0001042 86.9625 273.1495 15.30186695134978
Epoch: May 6, 2026 • Age: 10 hours

Current Status

Altitude 476.1 km
Velocity 7.63 km/s
Sub-Earth Point 27.51°N, 14.47°W
Launch Date Dec 8, 2023
Age 2.4 years
Type internet

Technical Details

Classification Payload
Mass 730.00 kg
Dry Mass 700.00 kg
Total Mass 730.00 kg
Length 0.30 m
Diameter 4.10 m
Span 29.00 m
Shape Box + pan
Manufacturer SPXS
Bus Type Starlink V2M
Phase Status In Orbit
Owner/State SPXS/US

Most Searched